Capitol Logistics 429


KPWM
Portland International Jetport
Portland, Maine, US
KIAD
Washington Dulles International Airport
Dulles, Virginia, US

Activity Log

Date Flight Route Aircraft Duration
08/10/2019 CPX429 NUBLE3 BAF HYPER7 B752 1h 39m
12/04/2018 CPX529 NUBLE4 BAF HYPER7 B752 1h 35m
03/31/2018 CPX529 NUBLE3 BAF HYPER7 B752 1h 32m

Route Details

Aircraft Information
Primary: Boeing 737-800BCF
Backup: Not Available
Route Data
Distance: 429nm
Sched. Duration: 1h 41m
Avg. Duration: 1h 35m (-6m)
Times Flown: 3
Recm'd Route: NUBLE3 BAF HYPER7
Planned Altitude: 34,000ft
Origin Wx: KPWM 251051Z 35003KT 10SM FEW100 02/M01 A3018 RMK AO2 SLP219 T00221006 $
Dest. Wx: KIAD 251052Z 03007KT 10SM -RA BKN038 BKN045 OVC055 09/04 A3017 RMK AO2 SLP214 P0000 T00890039
Notes: LOBSTER KING

Financial History
Total Freight: 153,561lbs
Average Load: 51,187lbs/flt
Fuel Used: 37,312lbs
Avg. Fuel Used: 12,437lbs/flt
Fuel Expense: $24,511
Avg. Fuel Expense: $8,170
Avg. Fuel Cost: $0.65/lbs
Total Gross Income: $190,416
Pilot Pay: $287
Total Expenses: $21,759
Total Revenue: $143,035
Average Revenue: $63,471.89